Вернуться в каталог

STARLINK-2700

АктивенСвязьVLEO
NORAD 48431·PAYLOAD·🇺🇸 United States

Запущен May 9, 2021 с Cape Canaveral Space Force Station

Loading…

Ближайшие Пролёты (ближайшие 24 часа)

TLE

СвежийSource: CelesTrak SupGP

Эпоха: Sep 14, 2026, 21:38 UTC

1 48431C 21040D   26257.90187500 -.00033463  00000+0 -10760-2 0  2572
2 48431  53.1597 352.2512 0001259  76.1514 210.5767 15.31719318    11

Отслеживайте STARLINK-2700 в реальном времени с AllMySat

Download on the App Store